Wind_Speed
14 12 10 9 8 8 8 7 7 9 10 11 12 12 12 11 12 11 11 11 12 13 13 14 14 15 15 15 16 15 15 16 16 16 16 16 16 16 16 15 15 15 15 14 14 14 14 15 16 17 18 19 20 19 19 19 19 19 19 19 18 18 18 17 16 16 16 15 15 16 16 15 15 14 14 14 14 14 12 12 12 13 14 16 18
17 16 14 14 12 11 10 9 8 8 9 10 12 12 11 11 11 11 11 10 10 11 11 12 12 12 12 12 13 13 14 14 15 15 15 15 15 15 15 14 14 14 14 14 15 14 14 14 14 15 16 17 18 19 19 19 19 19 19 19 19 19 19 19 18 18 17 17 16 16 16 16 15 15 15 16 15 14 14 13 14 15 16 16 17
20 19 17 17 16 15 13 12 10 9 9 9 10 11 11 11 11 11 11 10 9 9 10 10 10 10 10 10 10 11 12 12 13 14 14 15 15 14 14 14 13 13 14 15 15 15 15 15 15 14 15 15 16 16 17 17 17 18 18 18 19 19 20 20 20 20 20 19 19 19 19 18 17 17 17 17 16 16 15 15 15 16 17 18 18
23 21 20 19 18 18 17 15 13 12 11 10 10 11 11 11 11 11 11 11 9 8 8 8 8 8 9 9 9 10 11 12 12 12 12 12 13 13 13 13 13 13 13 14 15 15 16 16 16 16 15 15 14 14 14 14 14 15 15 16 16 17 18 19 19 20 20 20 20 20 20 19 19 18 18 18 18 17 17 17 17 17 17 18 18
25 24 22 21 20 20 20 18 16 14 13 13 12 11 12 12 12 11 11 11 10 9 8 8 8 9 9 9 9 9 10 11 11 11 12 12 11 11 11 12 12 12 13 13 13 14 15 16 17 17 17 16 15 14 14 13 13 13 14 14 15 15 16 17 17 18 18 19 19 20 20 20 19 19 18 19 19 19 19 19 19 19 18 19 19
28 26 25 24 23 23 23 21 19 18 16 16 15 14 13 13 13 12 12 11 10 10 10 9 9 9 10 10 9 9 8 9 10 10 11 12 11 10 10 10 11 11 12 12 12 12 14 15 16 17 17 17 16 15 14 13 12 13 14 14 15 15 15 15 16 16 17 17 18 18 19 19 19 19 19 20 20 20 20 20 20 20 20 19 20
31 29 28 27 26 25 25 24 23 22 21 19 18 17 16 16 16 14 13 12 12 12 11 11 10 10 11 11 11 10 9 8 9 9 9 10 10 11 11 11 11 11 11 11 11 11 11 12 13 15 16 17 17 16 15 13 12 11 12 13 13 14 14 14 14 15 15 16 16 16 17 18 18 18 19 19 20 20 20 20 20 20 20 20 20
34 32 31 29 28 28 28 27 27 26 24 22 20 20 19 19 19 18 16 15 14 14 14 12 12 12 11 12 13 13 12 10 10 10 10 10 9 10 11 11 11 12 12 13 12 10 9 9 10 12 13 14 15 17 16 14 13 11 10 10 10 11 11 12 12 13 13 13 14 14 15 17 17 17 18 18 19 19 20 20 20 20 20 19 19
36 34 33 32 32 31 31 30 30 29 27 25 23 22 21 21 22 22 20 18 17 16 16 15 14 14 13 13 14 15 15 14 13 12 12 11 10 9 10 10 10 11 13 14 14 13 11 9 8 9 11 11 12 14 16 16 14 12 10 9 9 9 9 9 9 10 10 11 12 12 13 15 16 16 17 17 17 18 18 19 19 19 19 19 19
37 35 33 33 34 34 34 34 33 32 30 28 27 25 24 24 25 24 23 22 20 19 18 18 17 16 16 15 15 16 18 17 17 16 16 14 12 11 10 9 9 10 11 13 15 15 14 12 10 8 9 11 11 12 13 15 15 14 12 10 9 8 7 7 7 7 8 8 9 10 11 12 13 14 14 15 15 15 16 16 17 18 18 18 18
39 37 34 33 33 34 35 36 36 36 34 32 30 28 27 26 26 27 26 25 23 22 20 20 20 19 19 18 18 19 20 20 19 20 20 18 17 14 12 11 11 11 12 13 14 15 15 15 14 12 9 8 10 11 12 12 13 14 14 12 10 8 7 6 5 4 4 5 5 7 8 9 10 11 11 11 12 12 13 14 14 15 15 15 15
42 40 38 36 34 31 32 35 36 36 36 36 34 32 31 28 27 28 28 27 26 24 23 22 23 22 22 21 21 23 24 23 22 22 22 21 20 19 16 15 14 15 14 13 14 15 15 15 15 15 13 9 8 10 11 11 11 12 13 14 12 10 8 6 4 3 2 2 2 3 5 5 6 7 8 8 9 10 10 11 11 11 12 12 11
45 44 42 40 38 36 34 36 37 35 37 38 37 35 34 30 28 28 28 28 28 27 26 25 25 25 24 23 25 27 28 26 24 24 24 24 24 23 21 20 18 18 18 17 16 17 16 15 15 16 15 12 10 9 10 11 10 9 10 12 12 11 10 7 5 3 3 3 2 2 3 3 4 4 4 5 5 6 7 7 8 8 8 8 7
47 47 46 44 44 43 41 41 41 40 41 41 39 38 36 32 30 29 27 27 27 27 29 30 28 27 26 25 29 31 30 28 27 26 26 26 26 26 26 24 22 21 21 21 21 20 18 17 18 17 15 13 12 11 11 12 12 10 9 9 10 11 10 9 7 5 5 6 6 6 5 6 6 5 5 5 4 3 4 5 6 5 5 4 4
50 51 51 50 50 49 48 48 47 44 43 42 41 41 39 35 33 31 27 25 25 28 33 34 31 29 28 28 31 33 30 28 28 28 28 28 28 29 29 28 27 24 23 24 24 23 20 20 22 21 18 16 15 13 12 14 14 12 10 9 9 10 10 10 8 7 7 8 8 9 9 9 9 9 9 8 8 7 6 7 7 7 7 6 5
57 56 53 51 52 52 51 51 51 49 47 45 43 42 41 39 37 34 29 26 27 32 37 38 36 33 32 31 34 34 32 29 28 28 30 30 30 30 30 30 30 28 27 28 28 27 25 24 25 26 23 20 18 16 15 16 17 15 12 11 10 10 10 10 9 9 9 8 9 10 11 12 12 13 13 13 12 12 11 12 12 13 12 10 9
60 60 57 55 55 55 54 53 54 53 51 49 48 47 47 45 44 41 36 33 35 39 42 43 41 39 36 35 36 37 37 35 33 31 31 31 31 31 32 32 32 31 32 31 31 31 30 28 28 29 28 25 22 20 19 20 20 17 15 14 13 13 13 12 11 11 11 10 10 11 12 13 14 15 15 15 15 15 15 16 17 18 17 15 13
59 60 60 59 59 58 57 57 57 57 56 55 56 55 53 51 49 47 44 42 43 46 48 48 46 44 42 40 40 41 42 41 38 36 35 34 34 35 35 35 35 34 35 35 35 34 33 32 31 31 30 28 26 24 23 23 23 20 18 16 14 14 15 14 14 14 13 13 13 13 14 15 16 16 16 17 17 18 18 19 20 21 20 18 17
64 62 62 63 63 62 58 56 57 59 60 60 58 56 54 53 52 51 50 49 50 53 54 54 52 48 45 44 44 44 45 44 42 41 39 39 39 39 40 40 39 37 38 39 39 38 37 35 33 32 32 31 30 29 27 26 24 23 21 19 16 15 15 15 16 16 16 14 14 15 17 18 18 17 17 17 18 19 19 20 21 22 20 19 18
73 71 69 68 67 67 64 59 57 60 65 66 64 62 59 57 57 57 57 56 57 58 58 56 53 48 45 46 46 46 47 48 47 45 43 43 43 43 43 43 43 42 42 42 42 42 41 37 35 34 34 33 33 32 31 28 26 26 25 23 21 19 18 18 18 18 18 18 17 17 18 18 18 17 16 17 19 21 21 20 19 19 19 18 18
81 79 77 75 73 72 71 67 60 57 62 67 69 67 61 55 54 58 62 63 62 60 57 54 52 49 46 46 46 46 47 49 50 49 46 45 45 45 45 45 45 46 47 47 45 44 43 40 39 38 37 36 36 36 34 32 31 30 29 28 27 25 24 22 21 21 21 21 21 21 20 19 19 18 17 18 20 21 20 19 19 18 18 18 18
89 87 85 83 81 78 79 79 74 69 68 69 70 70 67 61 57 58 62 65 64 62 59 55 53 51 50 48 48 48 49 50 50 50 48 46 45 45 46 47 47 49 52 52 50 48 46 44 43 42 41 39 39 38 37 36 34 33 32 32 31 31 30 28 27 26 25 25 26 26 25 24 23 22 21 20 19 18 17 18 20 20 19 18 19
95 92 90 89 89 87 86 87 87 85 83 80 77 75 75 73 71 69 68 67 67 66 63 61 60 58 54 51 51 52 53 53 52 51 50 49 49 49 49 50 50 52 55 57 56 53 51 49 48 47 45 44 43 42 41 39 37 36 36 36 36 35 34 34 33 32 30 30 30 31 31 31 31 30 29 27 26 25 26 28 29 29 28 26 25
100 97 95 93 93 93 94 94 93 92 90 88 86 84 82 81 80 78 74 71 71 70 69 68 67 65 60 56 55 56 56 56 56 54 53 53 54 54 54 55 55 56 58 59 60 59 57 54 53 52 51 50 49 48 46 44 42 41 41 41 41 40 38 37 38 38 37 36 35 35 36 36 36 36 36 36 36 37 38 40 40 40 38 36 34
104 102 99 97 95 95 96 98 98 97 96 95 94 93 92 90 88 85 82 80 78 78 77 75 74 71 67 65 63 62 62 62 61 58 57 57 58 59 60 60 60 60 60 60 61 61 61 59 58 56 55 54 54 53 52 51 49 47 46 45 46 45 42 40 40 41 41 42 41 40 40 40 40 41 41 42 42 42 43 44 45 45 44 42 41
103 104 103 101 100 98 98 98 99 100 100 100 100 100 99 98 96 93 91 90 88 87 86 84 81 76 73 70 68 67 67 67 66 64 63 63 62 62 63 64 64 64 64 63 63 62 62 61 61 60 59 58 58 58 57 56 55 54 52 50 50 50 47 45 45 44 44 44 45 45 45 45 44 44 45 47 48 48 48 48 49 49 48 47 46
101 102 103 103 103 102 101 100 100 100 101 101 102 103 103 102 100 97 95 93 93 92 90 88 86 83 79 75 73 71 70 70 69 68 68 68 67 67 66 67 68 68 68 68 66 65 65 64 63 63 62 62 63 62 62 60 59 58 57 56 55 55 53 51 51 49 48 47 48 49 50 50 50 49 50 51 52 53 53 54 54 54 54 53 51
101 101 101 102 102 103 103 103 102 102 102 102 102 103 104 103 102 99 97 96 95 94 92 89 87 85 82 79 76 75 74 74 73 72 71 70 72 72 71 70 70 70 70 71 71 71 70 70 69 68 67 66 66 66 66 65 63 62 61 60 60 59 58 57 56 55 54 52 51 51 53 54 54 54 54 55 56 57 58 59 59 59 59 59 58
101 100 100 101 101 101 100 100 101 103 103 103 103 104 104 104 103 101 99 98 98 96 93 91 89 87 84 82 80 79 79 78 78 78 76 75 75 75 74 73 72 72 72 73 74 76 76 76 75 74 72 71 70 69 69 69 67 66 65 64 64 64 63 62 61 60 59 58 56 56 56 56 57 58 59 59 60 61 62 63 63 63 63 63 64
102 100 100 100 101 100 99 98 99 100 101 102 102 103 104 104 104 103 102 101 100 98 96 95 93 91 89 88 86 84 83 82 83 83 83 80 78 77 76 75 74 74 74 75 77 79 80 80 80 78 77 76 74 73 72 73 72 71 70 69 68 68 68 67 66 65 65 64 62 61 60 60 60 61 63 64 65 66 67 67 68 69 69 69 69
104 103 102 101 101 100 99 99 100 101 100 100 100 101 101 102 103 103 103 103 102 101 100 99 97 95 93 91 90 88 86 86 86 86 85 83 80 78 77 77 76 75 75 76 77 80 81 82 83 82 82 81 80 78 77 76 76 76 75 74 72 72 71 71 70 70 70 69 69 69 68 67 66 66 67 68 69 70 71 72 72 73 74 74 74
103 103 103 103 102 101 101 101 102 102 102 101 100 100 100 100 100 101 101 102 102 102 101 101 100 98 97 95 93 92 90 89 89 88 87 85 83 81 80 80 79 78 77 76 77 79 81 84 85 85 86 85 84 83 82 81 80 80 79 78 77 76 76 75 74 75 75 75 76 76 76 76 75 74 75 75 75 75 76 76 77 78 78 79 79
102 102 102 102 102 102 103 103 102 103 103 103 102 102 101 101 101 100 100 99 99 99 99 99 99 99 98 97 97 96 95 94 92 91 89 87 86 85 83 83 83 82 81 80 78 78 79 82 84 86 86 87 87 86 86 85 85 85 84 84 83 82 81 80 80 80 80 80 81 82 83 83 83 83 83 82 82 81 81 81 81 81 82 83 83
103 103 102 101 101 101 102 103 103 103 103 104 104 104 104 103 103 103 101 100 100 99 98 98 98 97 97 97 97 97 97 96 95 94 92 91 90 89 87 86 86 86 86 85 84 82 81 81 81 83 84 85 86 87 87 87 87 87 87 87 88 87 87 86 86 86 85 85 86 87 88 89 90 90 90 89 88 88 87 86 85 85 86 87 87
104 104 104 102 101 101 101 101 102 104 104 105 105 105 105 105 105 104 103 102 102 101 101 100 99 98 97 97 97 97 97 97 96 96 95 94 93 92 91 91 90 90 90 90 89 89 87 86 85 84 84 85 85 86 87 87 87 88 88 88 88 88 88 89 91 91 91 90 90 91 92 93 94 95 95 95 94 93 92 90 89 90 90 91 92
106 106 106 105 104 103 102 101 102 103 105 106 106 105 105 105 104 104 104 103 103 103 102 102 101 100 100 99 98 98 97 97 97 96 96 96 96 96 95 95 94 94 94 94 94 93 93 94 93 92 91 90 89 89 89 89 89 90 90 90 89 88 88 88 89 91 92 94 94 94 95 96 96 97 97 97 97 97 96 95 95 94 95 95 95
106 107 107 107 107 106 105 104 103 103 104 105 105 105 105 105 104 104 103 103 103 103 103 102 102 101 101 101 100 100 99 98 98 97 97 97 97 97 97 97 97 97 98 98 98 97 97 98 99 99 98 97 96 95 94 94 93 93 93 93 93 94 94 93 93 93 94 95 95 96 97 97 98 99 99 100 100 99 99 99 99 99 99 99 98
106 108 109 108 108 107 107 107 108 107 106 105 104 103 103 103 104 103 103 102 102 102 102 102 101 101 101 102 102 101 101 101 100 100 99 99 98 98 98 99 99 99 100 101 102 102 102 103 103 102 102 101 100 100 100 100 99 99 98 98 98 98 99 99 99 99 99 99 98 98 98 98 98 99 101 102 103 103 103 102 102 102 102 102 102
107 108 109 109 109 109 109 109 110 112 111 110 108 106 105 104 103 103 103 103 103 102 102 101 100 100 101 102 102 101 102 102 102 101 101 101 101 101 100 100 100 101 102 103 104 105 106 107 108 108 108 107 107 107 106 106 106 105 105 105 104 104 103 103 103 104 104 105 104 103 101 100 99 100 101 103 104 105 105 105 105 105 105 105 105
112 111 111 110 110 110 111 112 113 114 114 113 112 110 109 107 106 106 105 105 105 105 104 103 102 102 102 102 101 101 102 102 102 102 103 103 103 103 103 103 103 103 104 105 106 107 108 109 111 112 113 114 114 114 114 115 115 114 114 113 113 112 112 112 113 114 115 116 115 114 112 111 110 109 109 109 109 108 108 107 107 108 108 108 108
114 114 113 111 109 108 109 110 112 113 114 114 113 113 112 111 109 108 107 105 105 104 103 103 103 103 103 102 102 102 102 102 102 102 102 103 104 104 104 105 105 106 106 107 108 109 110 111 112 114 116 117 118 119 120 120 121 121 122 122 122 123 123 124 124 125 125 125 124 124 123 123 123 122 122 121 121 120 118 117 116 115 115 115 115
114 114 114 114 113 112 111 111 111 112 114 114 114 114 113 112 111 110 109 108 106 105 105 104 104 104 104 104 104 104 103 103 103 102 103 103 104 104 105 105 106 107 109 109 110 111 111 112 114 115 117 118 120 121 122 124 125 125 126 127 127 128 128 129 130 130 130 130 130 129 129 129 129 129 129 129 129 129 129 128 127 126 126 125 125
113 114 114 115 117 117 117 117 116 116 116 116 116 116 115 114 113 112 111 110 110 109 108 108 107 107 107 106 106 106 105 105 105 105 104 104 105 105 105 106 107 108 109 110 111 112 113 114 115 116 118 119 120 122 123 125 126 128 129 130 130 131 132 133 134 134 134 134 134 134 134 134 134 134 134 133 134 134 134 134 134 134 134 133 133
112 112 113 114 115 116 117 117 117 117 117 117 117 117 116 115 114 113 112 112 111 111 110 109 109 108 108 108 108 107 107 107 107 107 107 107 107 107 107 107 108 109 110 110 111 112 113 115 116 117 118 120 121 122 123 125 126 127 128 129 131 132 133 134 135 135 135 136 136 137 137 137 137 138 138 138 138 138 139 139 140 140 140 140 140
112 112 112 112 113 113 113 114 115 116 116 117 117 116 116 115 114 113 112 112 112 111 111 110 110 109 109 109 109 109 109 109 109 109 109 109 109 109 110 110 111 112 112 112 112 113 114 115 116 117 118 119 121 122 123 124 126 127 128 129 130 132 133 134 134 135 136 137 137 138 138 139 139 140 140 140 141 141 142 143 143 143 144 144 144
115 113 112 113 114 113 113 113 113 114 115 116 116 116 115 115 114 113 112 112 111 111 111 111 111 111 110 110 110 110 110 110 110 110 110 111 111 112 112 113 114 115 115 115 115 116 116 116 117 117 118 119 120 121 122 123 124 125 127 128 130 131 132 133 134 135 136 136 137 138 139 139 140 141 141 142 142 143 143 144 145 145 146 146 147
119 116 115 115 115 115 115 114 114 115 116 116 117 117 116 116 115 114 113 112 112 112 111 111 111 111 111 111 111 111 111 110 111 111 110 110 110 111 112 113 114 116 116 117 118 119 119 120 121 121 122 123 124 124 125 126 126 127 128 129 130 131 131 132 133 134 135 136 137 138 139 140 141 141 142 143 143 144 144 145 145 146 147 147 148
123 122 120 118 118 118 118 117 117 116 117 117 118 118 117 117 116 115 115 114 114 113 113 113 112 112 112 111 111 111 111 111 111 111 111 111 111 111 111 111 112 114 115 116 117 119 120 121 122 123 124 125 126 127 127 128 129 130 130 131 132 133 134 135 136 137 138 139 140 140 141 142 142 143 144 144 145 145 146 146 147 148 148 149 149
122 123 123 122 121 120 120 120 119 119 118 118 119 119 119 118 118 117 117 116 116 115 115 114 114 113 113 113 112 112 112 112 111 111 111 111 112 112 112 113 113 114 115 115 116 118 119 120 121 122 123 124 125 126 127 128 129 130 131 132 133 134 135 136 137 138 139 139 140 141 142 143 144 145 145 146 146 147 147 147 148 149 149 150 151
120 121 122 122 121 121 121 121 121 120 119 119 120 120 121 120 120 119 119 119 118 118 117 116 116 115 115 114 114 114 114 114 113 113 113 112 112 113 113 113 113 114 114 114 115 116 117 118 119 120 121 122 123 124 125 126 127 128 129 130 131 132 133 134 135 136 137 138 139 140 141 142 143 144 145 145 146 146 147 147 148 148 149 150 150
118 119 120 119 118 118 119 120 121 121 120 120 120 120 121 121 121 121 121 120 120 119 118 118 117 116 116 116 115 115 115 115 114 114 113 113 113 113 113 112 112 112 113 113 113 114 114 115 115 116 116 117 118 119 120 122 123 124 125 126 128 129 130 131 132 134 135 136 137 138 139 140 141 142 143 144 144 144 145 145 146 146 146 146 146
Wind_Direction
239 244 251 263 279 293 308 328 347 359 4 3 4 6 6 6 8 15 21 25 34 42 47 49 51 52 51 51 49 46 44 45 45 47 47 48 49 48 48 46 43 43 45 46 48 47 46 46 47 47 46 45 45 45 45 45 46 48 50 50 51 53 55 55 55 53 51 49 47 45 44 41 37 35 35 32 27 22 16 14 14 18 33 47 49
244 248 252 258 267 278 287 300 315 330 346 352 353 354 357 358 356 1 8 12 19 26 33 40 43 45 46 45 43 42 40 41 41 42 43 43 43 44 46 45 40 37 38 37 37 37 36 36 38 40 41 42 43 42 40 38 38 40 41 42 43 44 47 49 51 52 53 53 52 51 50 49 47 44 43 41 37 32 30 28 23 25 36 48 53
251 256 259 259 263 272 278 285 293 302 317 333 339 339 342 346 345 346 350 352 359 9 12 20 29 31 33 36 35 33 33 34 35 38 38 37 37 37 37 38 36 35 36 35 34 32 30 28 29 31 34 37 39 40 39 36 33 33 33 35 36 37 38 41 44 47 49 52 53 53 52 51 51 49 47 46 44 42 44 45 42 41 46 54 59
253 260 264 264 263 267 272 276 279 284 294 305 316 323 326 329 331 333 336 336 339 344 349 355 5 9 10 17 23 24 24 23 23 25 26 27 30 32 31 29 27 28 31 33 33 32 30 28 26 27 28 30 32 35 38 35 32 30 30 31 33 33 36 37 39 42 44 47 50 53 54 53 52 52 50 50 50 50 50 52 54 53 56 61 65
252 258 263 265 263 262 265 269 271 275 280 286 292 301 308 312 313 314 318 324 325 323 325 330 339 344 347 353 0 8 14 18 17 15 13 12 10 15 16 15 15 16 18 24 29 31 32 32 30 27 25 24 26 28 30 30 28 26 25 28 29 30 34 38 40 42 43 46 49 52 54 55 55 54 54 54 56 55 55 57 60 63 65 68 71
250 255 259 262 262 261 261 262 264 268 273 276 279 283 289 292 293 297 301 306 311 311 310 310 316 324 331 333 336 340 348 1 7 7 7 7 0 352 349 350 355 358 360 6 15 22 27 32 34 32 29 25 23 24 25 25 23 21 19 21 22 24 28 37 43 47 49 51 52 54 55 57 58 59 59 60 61 60 60 62 65 68 71 72 75
250 254 258 260 261 261 259 257 258 263 267 269 271 273 274 276 277 279 284 287 292 298 300 300 301 307 318 322 319 318 320 332 345 347 349 357 355 347 342 341 343 341 337 341 352 2 12 23 29 30 30 28 24 20 20 22 21 21 18 16 18 20 23 30 39 46 53 57 57 58 61 63 63 65 65 65 65 66 66 67 68 70 73 75 78
250 254 257 260 261 260 257 253 254 258 263 264 265 266 266 266 267 267 270 272 276 283 289 292 293 294 303 311 311 310 309 312 321 325 327 335 340 339 339 339 339 336 329 327 331 336 348 6 18 20 23 26 22 17 15 16 16 16 16 16 18 21 24 29 35 42 50 59 63 64 67 70 70 70 72 72 71 71 71 72 73 74 76 78 81
249 252 256 259 260 258 254 252 252 254 259 260 260 261 261 260 260 260 261 264 265 272 278 281 284 286 291 299 304 305 305 305 306 308 313 319 322 323 326 328 330 332 329 327 326 325 327 337 359 18 25 25 23 20 16 13 11 10 9 9 11 18 25 30 37 44 49 58 67 71 72 74 76 76 77 78 77 76 76 76 77 78 80 82 84
247 249 254 257 258 257 254 253 253 253 255 258 257 256 257 257 257 256 256 259 262 266 272 274 275 279 282 286 291 295 298 299 298 297 300 303 305 306 308 312 313 315 321 325 326 326 325 324 327 347 10 17 18 19 17 12 8 6 4 2 1 6 16 23 30 43 52 59 71 79 79 79 82 83 83 84 85 84 83 81 80 80 81 82 85
245 247 252 256 256 255 254 255 256 254 254 256 257 256 254 254 256 255 253 255 258 263 268 272 272 273 276 280 282 283 286 288 288 290 291 291 292 294 293 294 295 298 306 313 319 324 326 325 325 324 328 351 5 7 8 7 4 4 3 359 355 352 357 9 15 22 40 56 72 86 90 88 90 92 93 94 95 95 94 90 86 84 84 85 87
246 249 251 253 252 251 250 252 256 257 256 255 255 254 254 254 256 256 254 253 256 259 264 271 274 275 278 280 279 278 280 283 283 284 284 284 285 287 285 283 285 287 290 295 303 312 315 318 325 323 315 319 342 349 348 351 352 355 358 356 352 347 343 344 345 340 347 19 64 108 111 108 106 107 108 109 110 110 108 103 100 98 96 97 97
246 250 250 250 252 252 250 248 249 251 252 254 253 253 257 259 259 261 260 257 257 259 263 269 274 277 280 280 278 278 280 283 283 281 280 280 281 282 281 280 282 283 285 288 289 293 299 306 313 315 312 314 318 318 321 332 339 343 348 349 346 344 338 330 320 301 279 271 253 217 187 169 160 150 144 138 132 128 125 123 124 123 118 116 120
243 246 245 245 248 248 246 245 246 248 251 254 256 258 261 261 261 265 266 262 261 262 264 267 270 272 276 278 277 276 278 282 285 285 283 280 278 278 279 280 280 280 283 283 282 284 291 296 295 293 297 302 301 299 302 311 318 324 331 337 337 338 333 323 315 299 272 258 252 247 239 227 221 217 207 201 201 188 172 166 166 166 163 153 155
236 238 238 240 243 243 241 240 242 247 250 253 256 259 262 261 261 262 261 256 254 255 256 262 267 271 276 277 275 275 279 282 284 284 283 280 277 276 276 277 278 278 278 277 277 278 281 283 283 283 284 285 286 290 294 296 300 307 312 316 322 326 323 318 314 300 277 262 255 253 249 243 241 239 234 232 233 236 232 223 222 227 224 214 207
233 235 237 241 243 245 245 243 242 245 248 250 252 256 259 260 260 260 257 250 248 252 256 262 267 270 273 273 272 275 281 281 280 280 281 280 276 273 273 273 274 274 274 274 275 276 275 275 277 279 280 280 282 284 287 288 293 299 300 298 301 304 307 310 310 298 283 271 262 256 252 249 248 246 245 244 240 240 240 239 245 249 243 235 235
232 233 236 239 242 244 247 248 246 246 248 249 252 254 256 256 256 258 256 249 248 254 259 263 265 267 269 268 268 272 277 277 276 277 278 278 277 275 272 271 271 271 271 272 273 275 275 274 273 274 276 279 282 283 281 282 287 293 295 293 292 292 292 297 300 297 292 283 269 258 253 251 250 248 248 248 246 244 242 242 248 255 254 252 254
230 230 232 236 240 241 245 249 248 246 246 250 252 254 254 254 255 257 255 248 247 253 258 262 264 265 266 265 265 267 270 270 271 270 270 271 274 276 274 271 270 270 270 270 270 271 272 273 272 272 274 276 279 281 277 274 276 283 288 289 290 289 288 288 288 289 293 292 280 267 258 253 251 250 250 251 251 248 245 243 247 254 257 258 261
230 231 230 233 238 240 242 246 249 245 243 245 248 251 253 255 255 256 255 251 251 255 259 262 263 263 263 263 264 266 267 267 267 266 266 266 268 270 272 272 271 270 269 268 268 267 268 269 271 272 273 273 274 275 273 270 271 275 279 283 286 287 288 288 288 286 288 289 285 279 272 264 259 256 254 256 258 257 254 248 246 250 256 259 262
233 233 232 232 236 238 238 240 244 244 242 242 244 248 252 255 255 254 254 255 257 259 260 261 260 259 260 261 263 265 266 266 265 264 265 265 265 266 268 268 269 270 269 267 266 266 267 269 271 270 269 270 271 271 270 269 268 270 275 281 284 284 285 287 288 288 288 287 284 283 281 277 271 265 260 261 265 265 262 257 254 259 268 272 271
236 235 235 234 234 234 234 235 237 240 241 241 242 245 248 251 252 252 251 253 256 258 259 259 257 257 259 259 259 260 261 263 264 263 262 262 263 264 265 265 267 268 269 268 266 265 266 268 269 269 267 267 268 269 269 268 268 268 273 278 281 282 282 282 283 284 285 286 285 283 282 281 279 273 266 265 267 267 265 265 268 271 276 280 279
240 237 236 236 236 235 236 236 237 239 240 241 241 242 243 244 247 249 249 250 251 252 254 255 255 256 258 256 254 254 257 258 259 260 260 260 261 262 263 265 267 268 268 268 266 264 264 265 267 268 268 267 266 267 267 267 267 268 269 272 275 277 278 278 278 277 279 281 282 282 281 280 279 277 273 269 269 269 271 274 278 277 276 279 279
243 242 239 238 237 237 238 239 239 240 241 242 242 241 242 243 246 248 249 250 249 249 250 252 254 256 257 254 250 251 254 254 254 255 257 260 262 262 261 263 266 267 267 268 267 266 265 265 265 266 267 266 265 264 265 265 265 266 268 269 270 272 274 276 276 275 274 274 276 278 279 279 279 277 275 273 272 273 275 278 282 284 284 285 285
244 244 242 241 239 239 239 240 241 241 242 243 243 242 242 244 246 247 248 250 250 251 251 252 254 255 255 253 251 249 250 251 253 254 256 259 261 263 262 262 264 266 267 267 266 266 266 266 266 266 266 266 266 265 265 264 264 264 266 267 268 268 270 273 273 273 273 272 272 272 274 275 277 277 276 276 275 275 277 279 281 284 285 284 284
243 243 243 242 241 240 240 240 241 242 243 244 245 246 246 247 248 248 248 250 252 253 254 255 256 255 254 253 252 250 249 249 251 254 257 259 260 262 262 262 263 264 265 265 264 265 266 267 267 267 267 268 267 267 267 266 265 263 262 263 265 265 266 269 270 271 272 273 273 272 271 270 272 273 275 276 276 276 277 279 280 282 283 282 282
243 243 243 243 242 242 241 241 241 242 243 244 246 248 249 251 251 250 250 251 252 254 255 256 256 256 254 253 253 252 250 250 250 253 256 259 260 261 262 261 261 262 262 263 262 263 264 265 267 267 268 268 268 268 268 268 267 266 264 262 262 262 263 265 266 267 269 271 273 273 272 271 269 268 270 272 274 276 277 278 279 280 281 281 281
243 243 243 243 243 243 243 243 243 243 244 244 246 247 248 250 251 251 251 251 252 253 254 256 256 256 255 254 253 253 252 251 251 253 256 259 261 261 261 260 260 260 260 261 261 261 262 263 266 267 268 268 268 268 267 268 268 268 266 265 263 262 262 262 263 264 266 268 270 272 274 274 272 270 268 268 270 272 273 275 277 278 279 280 280
243 243 243 243 243 243 244 244 244 244 245 245 246 247 248 248 249 250 251 251 251 252 253 254 255 255 255 254 253 252 252 251 251 252 256 259 262 262 261 259 259 259 258 259 260 260 261 263 265 267 268 268 267 267 267 267 267 268 267 266 265 265 264 263 263 263 264 265 267 269 271 274 275 274 273 271 269 269 270 271 273 274 275 277 278
244 244 244 244 244 244 244 245 245 245 246 246 246 247 248 249 249 249 250 251 252 252 252 253 254 254 254 254 254 253 252 252 252 253 255 259 262 262 261 260 258 257 257 257 258 259 260 262 264 266 267 267 267 266 266 266 267 268 268 267 267 266 266 265 265 263 263 264 264 265 266 270 273 275 275 275 273 271 270 269 269 270 271 272 274
245 245 245 245 245 245 245 245 246 246 246 247 247 248 249 250 250 250 250 250 251 252 252 252 252 253 254 255 255 254 253 253 253 254 256 258 259 259 260 261 260 258 257 257 257 258 259 261 263 264 265 266 266 266 266 266 266 267 268 268 268 268 267 267 267 265 264 264 264 264 265 267 270 272 274 275 276 275 273 271 269 268 268 269 270
245 246 246 245 246 246 246 246 246 246 247 247 248 248 249 250 251 251 251 251 251 252 252 252 253 253 253 254 254 254 254 254 254 255 256 257 257 256 256 259 261 260 259 258 257 257 258 259 261 262 264 265 265 265 265 265 266 267 268 268 268 267 267 267 267 266 265 265 264 264 265 267 268 270 272 274 275 276 276 275 273 271 269 268 268
245 246 246 246 246 246 246 246 246 247 247 247 247 248 249 250 251 252 252 252 252 252 252 253 254 254 254 254 254 254 254 254 254 255 256 256 255 254 254 255 256 258 259 259 258 257 257 258 259 260 262 263 263 264 264 265 265 266 266 267 267 266 266 266 266 266 266 266 266 266 267 267 268 269 272 273 275 275 276 276 275 274 272 270 268
244 245 246 246 246 246 246 247 247 247 247 248 248 248 248 249 250 251 252 252 253 253 253 253 254 254 254 254 254 254 254 254 254 254 254 254 254 253 253 253 253 254 256 257 258 258 258 258 259 260 261 262 263 264 265 265 265 266 266 266 266 265 265 265 265 266 267 267 268 268 268 268 268 269 271 273 274 274 275 275 275 274 273 272 270
245 245 246 246 246 246 246 247 247 248 248 248 248 248 248 249 249 250 251 251 252 253 253 253 254 254 254 255 255 255 255 255 255 255 254 254 253 253 253 252 252 252 253 254 255 256 257 258 259 259 260 261 262 264 264 265 266 266 266 266 266 266 266 266 266 266 267 268 269 270 270 270 271 271 272 272 273 273 273 273 273 273 272 272 271
246 246 247 247 248 248 248 248 248 248 248 248 248 249 249 249 250 250 251 251 252 252 253 253 254 254 254 255 255 255 255 255 255 255 255 254 254 253 253 252 252 252 252 252 253 254 255 256 257 258 259 259 260 261 262 262 263 264 264 265 265 266 266 267 267 268 268 269 270 271 271 272 272 273 273 273 273 273 272 272 272 272 272 271 271
246 247 247 248 248 248 249 249 249 249 249 248 248 248 249 249 250 250 251 251 252 252 253 254 254 254 255 255 255 255 255 255 255 255 255 255 254 254 254 253 252 252 252 251 252 253 254 255 256 257 257 258 258 259 259 260 260 261 261 262 263 264 264 265 266 267 268 269 269 270 270 270 271 272 272 272 273 273 273 272 272 271 271 270 270
246 246 246 247 247 248 248 249 250 250 250 249 249 249 249 250 250 251 251 252 252 253 253 254 254 255 255 255 255 255 256 256 256 256 256 255 255 255 254 254 253 253 252 252 251 251 252 254 255 256 257 257 256 256 257 257 258 258 258 259 261 262 263 264 264 265 266 266 267 267 268 268 268 268 269 269 270 270 271 271 271 271 270 270 269
247 247 246 246 247 247 248 248 249 250 250 251 251 250 250 251 251 252 252 252 253 253 254 254 254 255 255 256 256 256 256 256 256 257 257 256 256 256 256 255 255 254 253 253 252 252 252 252 253 255 256 256 255 255 255 255 256 256 256 257 258 259 260 261 262 263 263 263 264 264 264 265 266 266 266 266 267 267 267 267 268 269 269 269 268
247 248 248 247 247 247 248 249 249 250 251 252 252 252 252 252 253 253 253 253 253 253 253 254 255 255 255 256 256 256 257 257 257 257 257 257 257 257 257 257 256 256 255 255 254 254 253 253 253 253 254 255 255 256 255 256 256 256 256 257 257 257 258 258 259 260 261 262 262 262 262 262 262 263 264 264 265 265 265 266 266 266 266 267 267
248 248 249 248 248 248 248 249 250 251 252 252 253 253 254 254 254 254 254 254 254 254 254 255 255 255 256 256 257 257 257 257 257 257 257 258 258 258 258 258 258 258 258 257 256 256 255 255 255 255 255 255 256 256 257 257 258 258 258 258 258 258 258 259 260 261 262 262 262 262 262 263 262 262 262 262 262 263 263 264 264 264 264 265 265
248 248 248 249 248 248 248 249 250 251 253 253 253 253 254 254 255 255 255 255 255 255 255 256 256 256 257 257 257 257 257 257 258 258 258 258 258 258 258 258 259 259 259 259 258 258 258 257 257 256 256 256 257 257 258 258 259 260 260 260 261 261 262 262 263 263 264 264 264 264 264 264 264 264 264 264 263 263 263 263 263 263 263 263 263
248 248 249 250 250 250 250 250 251 252 253 254 254 254 254 254 255 255 255 255 256 256 256 257 257 257 258 258 258 258 258 258 258 259 259 259 259 259 259 259 259 259 259 259 259 259 260 259 259 259 258 258 258 258 258 259 259 260 260 261 261 262 263 263 264 264 265 265 265 265 265 265 265 264 264 264 264 264 264 264 264 263 264 264 263
247 248 249 250 251 252 252 252 252 253 253 254 255 255 255 255 255 255 255 256 256 256 257 258 258 258 258 258 258 258 258 259 259 259 259 259 260 260 260 260 260 260 260 260 260 260 260 260 260 260 260 260 260 260 260 260 260 261 261 261 262 262 263 263 264 264 265 265 266 266 266 266 265 265 265 264 264 264 264 264 264 264 264 264 264
246 247 248 249 251 252 253 253 253 253 254 254 255 256 256 256 257 257 257 257 256 257 257 257 258 258 258 258 258 258 258 258 258 259 259 259 260 260 261 261 261 261 261 261 261 261 261 261 261 261 261 261 262 262 262 262 262 262 263 263 263 264 264 264 265 265 265 266 266 266 266 266 266 266 266 266 265 265 265 265 265 265 264 264 264
243 245 246 247 248 250 251 252 253 253 254 254 255 255 256 257 257 257 258 258 257 257 257 257 257 257 257 258 258 258 258 258 258 258 258 259 259 260 260 260 261 261 261 262 262 262 262 262 262 262 262 262 263 263 263 263 264 264 264 264 265 265 265 265 265 266 266 266 266 266 267 267 267 267 267 267 266 266 266 266 266 266 266 266 266
241 242 243 245 247 247 249 250 251 252 253 254 255 255 256 257 257 258 258 258 258 258 258 258 258 258 258 258 258 259 259 259 259 259 259 259 259 259 260 260 260 261 261 261 262 262 262 262 263 263 263 263 264 264 264 264 265 265 265 266 266 266 266 267 267 267 267 267 268 268 268 268 268 268 268 268 268 268 268 268 268 268 268 268 268
240 240 241 243 245 246 247 248 249 251 252 253 254 255 256 256 257 258 258 258 259 259 259 259 260 260 260 260 260 260 260 261 261 261 261 261 260 260 260 260 261 261 261 262 262 262 262 262 263 263 264 264 264 265 265 265 266 266 266 267 267 267 267 268 268 268 268 269 269 269 269 270 270 270 270 269 269 269 269 269 269 270 270 270 270
240 240 240 241 243 244 246 247 248 249 251 252 253 254 255 256 257 257 258 258 259 259 260 260 261 261 261 261 262 262 262 262 262 263 263 263 263 263 263 263 263 263 263 263 263 263 264 264 264 265 265 265 266 266 266 267 267 267 267 267 268 268 268 268 269 269 269 270 270 270 270 270 270 271 271 271 270 270 270 270 271 271 271 271 271
241 241 241 241 241 243 245 246 247 248 249 251 252 254 254 255 256 257 258 258 259 259 260 260 261 262 262 263 263 263 264 264 264 264 264 265 265 265 266 266 266 266 266 266 266 266 266 266 266 266 267 267 267 268 268 268 268 269 269 269 269 269 269 270 270 270 270 270 271 271 271 271 271 271 271 271 271 271 272 272 272 272 272 272 272
241 242 241 241 241 242 243 245 247 248 248 250 251 253 254 255 256 256 257 258 259 259 260 261 261 262 262 263 264 264 265 265 266 266 266 267 267 267 268 268 268 268 268 268 268 268 268 268 268 269 269 269 269 269 270 270 270 270 271 271 271 271 271 272 272 272 272 272 272 272 272 272 272 272 272 272 272 272 273 273 273 273 273 274 274
242 243 243 242 242 242 243 244 245 247 248 249 250 252 253 255 256 257 257 258 259 259 260 261 261 262 263 263 264 265 265 266 266 267 267 268 268 269 269 269 270 270 270 270 270 270 270 271 271 271 271 271 271 271 271 271 272 272 272 272 272 273 273 273 273 273 273 273 273 273 273 273 273 273 274 274 274 274 274 275 275 275 275 276 276
Height
11029 11030 11030 11031 11032 11032 11032 11032 11032 11032 11031 11031 11030 11030 11029 11028 11027 11027 11026 11026 11025 11025 11024 11024 11023 11023 11022 11021 11021 11020 11020 11019 11019 11018 11018 11017 11016 11016 11015 11015 11014 11014 11013 11012 11012 11011 11010 11009 11009 11008 11007 11007 11006 11005 11003 11002 11001 10999 10998 10997 10995 10994 10993 10992 10990 10989 10988 10986 10985 10983 10982 10980 10979 10978 10977 10976 10975 10975 10974 10973 10971 10970 10970 10970 10969
11028 11030 11031 11031 11032 11032 11033 11033 11033 11032 11032 11031 11031 11031 11030 11029 11029 11028 11027 11027 11027 11026 11025 11025 11024 11024 11024 11023 11022 11022 11021 11021 11021 11020 11020 11019 11018 11018 11017 11017 11016 11015 11015 11014 11013 11012 11012 11011 11010 11009 11008 11008 11007 11006 11005 11004 11002 11001 11000 10998 10997 10996 10995 10993 10992 10991 10990 10989 10987 10986 10985 10983 10982 10980 10979 10978 10977 10976 10976 10975 10974 10973 10973 10973 10972
11028 11029 11030 11031 11032 11032 11033 11033 11033 11032 11032 11032 11031 11031 11030 11030 11029 11029 11028 11028 11027 11027 11026 11026 11025 11025 11024 11024 11024 11023 11022 11022 11022 11022 11021 11021 11020 11019 11019 11018 11017 11017 11016 11015 11014 11013 11013 11012 11011 11010 11009 11009 11008 11007 11006 11005 11004 11003 11001 11000 10999 10997 10996 10995 10994 10993 10992 10991 10990 10989 10987 10986 10984 10983 10982 10981 10980 10978 10978 10977 10977 10976 10975 10975 10975
11027 11029 11030 11031 11031 11032 11032 11032 11032 11032 11032 11031 11031 11030 11030 11030 11029 11029 11028 11028 11027 11026 11026 11026 11026 11025 11025 11025 11024 11024 11024 11023 11023 11023 11022 11022 11021 11021 11020 11019 11019 11018 11017 11016 11015 11014 11013 11012 11012 11011 11010 11009 11009 11008 11007 11006 11005 11004 11002 11001 11000 10999 10997 10996 10996 10994 10993 10993 10992 10991 10990 10988 10987 10986 10984 10983 10982 10981 10980 10979 10979 10978 10977 10977 10976
11026 11028 11029 11030 11030 11031 11031 11031 11031 11031 11031 11030 11030 11029 11029 11029 11028 11028 11027 11027 11026 11026 11025 11025 11025 11025 11025 11025 11025 11024 11024 11024 11023 11023 11023 11023 11022 11021 11021 11020 11020 11019 11018 11018 11016 11015 11014 11013 11012 11012 11011 11010 11009 11008 11007 11007 11005 11004 11003 11002 11001 11000 10998 10997 10996 10995 10994 10994 10993 10992 10991 10990 10989 10988 10987 10986 10984 10984 10982 10981 10981 10980 10979 10978 10978
11024 11026 11027 11028 11029 11029 11029 11029 11029 11029 11029 11028 11028 11028 11027 11027 11027 11026 11026 11026 11025 11024 11024 11024 11024 11024 11024 11024 11024 11024 11024 11024 11023 11023 11023 11023 11022 11022 11021 11021 11020 11020 11019 11018 11018 11016 11015 11014 11013 11012 11012 11011 11010 11009 11008 11007 11006 11005 11004 11003 11002 11001 11000 10999 10997 10997 10996 10995 10994 10993 10992 10992 10991 10990 10989 10988 10987 10986 10985 10984 10983 10982 10981 10980 10980
11021 11023 11024 11026 11026 11026 11026 11026 11026 11025 11025 11026 11026 11025 11025 11025 11024 11024 11024 11024 11023 11022 11022 11022 11022 11023 11023 11024 11024 11024 11024 11023 11023 11023 11022 11022 11022 11022 11021 11021 11021 11020 11019 11019 11018 11017 11016 11015 11014 11013 11012 11012 11011 11010 11009 11008 11007 11006 11005 11004 11003 11002 11001 11000 10999 10998 10998 10997 10996 10995 10994 10993 10993 10991 10990 10990 10989 10988 10987 10986 10985 10984 10983 10982 10982
11018 11020 11021 11022 11023 11023 11022 11022 11021 11021 11021 11022 11022 11023 11023 11022 11022 11021 11021 11021 11021 11020 11020 11021 11021 11021 11022 11022 11023 11023 11023 11023 11023 11022 11022 11022 11022 11022 11021 11021 11021 11020 11019 11019 11018 11018 11017 11016 11014 11013 11013 11012 11011 11011 11010 11009 11008 11007 11005 11005 11004 11003 11002 11002 11001 11000 10999 10999 10998 10997 10996 10995 10994 10993 10992 10991 10990 10990 10989 10988 10987 10986 10985 10984 10984
11015 11017 11018 11019 11019 11019 11019 11018 11017 11017 11017 11018 11018 11019 11019 11019 11018 11019 11019 11019 11019 11019 11019 11019 11019 11019 11020 11020 11021 11021 11021 11021 11022 11022 11021 11021 11021 11021 11021 11021 11021 11020 11019 11018 11018 11017 11017 11016 11015 11014 11014 11013 11012 11012 11011 11010 11009 11008 11007 11005 11004 11004 11003 11003 11002 11002 11001 11000 10999 10999 10998 10997 10996 10995 10994 10993 10992 10992 10991 10990 10989 10988 10987 10987 10986
11012 11013 11015 11016 11016 11016 11015 11014 11014 11013 11013 11013 11014 11015 11016 11016 11015 11016 11017 11017 11017 11017 11017 11017 11017 11017 11017 11018 11019 11019 11019 11019 11020 11020 11020 11020 11020 11020 11020 11020 11020 11020 11019 11018 11017 11017 11016 11016 11015 11015 11014 11014 11013 11013 11012 11011 11010 11009 11008 11006 11005 11004 11004 11003 11003 11003 11002 11001 11001 11000 10999 10998 10997 10996 10995 10994 10994 10993 10992 10992 10991 10991 10990 10990 10990
11008 11010 11012 11013 11012 11012 11011 11010 11009 11008 11009 11009 11010 11011 11012 11012 11013 11013 11014 11015 11015 11015 11015 11015 11015 11015 11015 11016 11016 11016 11016 11017 11017 11018 11018 11018 11019 11019 11019 11019 11019 11019 11019 11018 11017 11016 11016 11015 11015 11014 11014 11014 11014 11013 11012 11011 11010 11010 11008 11007 11007 11006 11005 11004 11004 11003 11003 11002 11002 11001 11000 10999 10998 10997 10996 10995 10994 10994 10993 10993 10992 10992 10992 10992 10992
11005 11007 11009 11010 11010 11008 11006 11004 11002 11002 11002 11003 11004 11006 11007 11009 11011 11011 11011 11012 11012 11012 11012 11012 11012 11012 11013 11014 11014 11013 11012 11014 11015 11015 11015 11016 11017 11017 11018 11018 11018 11018 11017 11017 11017 11016 11015 11015 11014 11014 11014 11014 11014 11013 11012 11011 11011 11010 11009 11008 11007 11007 11006 11005 11004 11003 11003 11002 11002 11001 11000 11000 10999 10998 10997 10996 10995 10994 10994 10993 10993 10993 10992 10992 10992
11004 11004 11005 11007 11007 11006 11003 10999 10997 10996 10995 10995 10998 11002 11004 11007 11009 11008 11009 11010 11009 11009 11009 11008 11009 11009 11010 11011 11011 11009 11009 11011 11012 11012 11013 11013 11014 11015 11016 11016 11016 11016 11016 11016 11016 11015 11015 11015 11014 11013 11013 11013 11013 11012 11011 11011 11010 11009 11009 11008 11007 11007 11006 11005 11004 11004 11003 11002 11002 11001 11000 10999 10999 10998 10998 10997 10996 10995 10995 10994 10993 10992 10992 10992 10992
11002 11001 11000 11001 11001 10999 10997 10994 10992 10992 10992 10993 10996 10999 11001 11004 11006 11006 11007 11007 11007 11007 11004 11003 11004 11005 11006 11008 11006 11005 11006 11008 11009 11010 11010 11011 11012 11012 11013 11014 11014 11014 11015 11014 11013 11013 11013 11014 11013 11012 11011 11011 11011 11010 11010 11009 11008 11008 11008 11007 11007 11006 11006 11005 11004 11004 11003 11002 11001 11001 11000 10999 10998 10998 10997 10997 10997 10996 10996 10994 10993 10992 10992 10992 10992
10994 10993 10994 10993 10990 10989 10989 10988 10988 10990 10991 10993 10994 10996 10998 11000 11001 11002 11004 11004 11004 11002 10997 10996 11000 11002 11003 11004 11002 11000 11003 11006 11006 11007 11007 11008 11009 11009 11010 11011 11011 11012 11012 11011 11011 11011 11012 11012 11010 11010 11010 11010 11009 11009 11008 11007 11006 11006 11006 11006 11006 11006 11005 11005 11004 11004 11003 11002 11001 11000 10999 10998 10997 10997 10996 10996 10996 10996 10996 10995 10994 10993 10992 10991 10992
10983 10985 10989 10989 10985 10981 10980 10983 10986 10988 10989 10991 10992 10992 10994 10996 10997 10998 11001 11001 11001 10997 10991 10991 10996 10999 11000 11000 10998 10998 11000 11002 11003 11003 11003 11004 11005 11006 11007 11008 11008 11009 11009 11008 11008 11008 11009 11009 11008 11008 11008 11009 11008 11007 11007 11006 11005 11005 11005 11005 11005 11005 11004 11004 11004 11003 11002 11002 11001 10999 10998 10997 10996 10996 10995 10995 10995 10995 10995 10994 10993 10992 10991 10991 10992
10975 10978 10983 10985 10983 10977 10974 10977 10983 10987 10988 10989 10988 10986 10988 10990 10991 10994 10998 11000 10998 10992 10987 10988 10991 10994 10996 10996 10995 10995 10996 10998 10999 11000 11000 11000 11000 11002 11003 11004 11004 11005 11005 11005 11005 11005 11005 11006 11006 11005 11005 11007 11007 11007 11006 11005 11004 11003 11003 11003 11003 11003 11003 11003 11003 11002 11002 11001 11000 10998 10997 10996 10995 10994 10994 10993 10993 10993 10992 10992 10991 10991 10991 10991 10991
10969 10972 10975 10978 10978 10976 10974 10975 10978 10983 10987 10986 10981 10978 10980 10983 10986 10989 10992 10995 10994 10989 10984 10984 10987 10989 10991 10992 10992 10991 10992 10993 10995 10995 10995 10996 10996 10997 10998 10999 11000 11001 11001 11001 11001 11002 11002 11002 11002 11002 11002 11004 11005 11005 11005 11003 11002 11002 11001 11001 11002 11002 11001 11001 11001 11001 11000 11000 10999 10998 10996 10994 10993 10992 10992 10991 10990 10990 10990 10989 10989 10989 10990 10990 10990
10962 10964 10966 10968 10970 10973 10975 10974 10973 10975 10978 10977 10971 10970 10973 10977 10980 10983 10985 10987 10987 10985 10981 10982 10983 10985 10986 10987 10987 10987 10987 10988 10989 10990 10990 10991 10992 10993 10993 10994 10995 10996 10996 10997 10997 10997 10997 10998 10999 10999 11000 11000 11001 11001 11001 11000 11000 10999 10999 10999 10999 10999 10999 10999 10999 10999 10998 10998 10997 10996 10995 10993 10992 10991 10990 10989 10988 10987 10987 10987 10987 10988 10988 10989 10989
10954 10955 10956 10958 10961 10966 10970 10970 10967 10965 10965 10967 10966 10967 10970 10973 10975 10977 10978 10979 10979 10978 10977 10978 10979 10979 10981 10982 10982 10982 10982 10982 10983 10984 10985 10985 10986 10987 10988 10989 10990 10991 10991 10992 10992 10992 10993 10995 10996 10996 10996 10996 10997 10996 10996 10996 10996 10996 10995 10995 10996 10996 10997 10997 10997 10996 10996 10995 10995 10994 10993 10992 10991 10990 10989 10988 10986 10984 10984 10984 10985 10986 10987 10987 10987
10944 10946 10948 10950 10952 10955 10958 10960 10960 10958 10957 10959 10961 10964 10968 10971 10971 10971 10971 10971 10972 10971 10971 10973 10973 10973 10975 10978 10978 10976 10976 10976 10977 10978 10979 10979 10980 10981 10983 10984 10985 10985 10984 10985 10987 10989 10990 10992 10992 10992 10992 10992 10992 10991 10992 10992 10992 10992 10992 10992 10992 10993 10994 10994 10994 10993 10993 10993 10992 10992 10991 10990 10989 10988 10987 10986 10984 10983 10982 10982 10982 10983 10984 10983 10983
10931 10935 10939 10942 10943 10946 10948 10949 10950 10950 10949 10951 10954 10958 10961 10964 10964 10963 10962 10963 10964 10964 10964 10966 10968 10968 10970 10972 10973 10971 10970 10970 10970 10971 10972 10973 10974 10976 10977 10979 10979 10979 10977 10978 10981 10984 10985 10987 10987 10987 10987 10988 10987 10987 10987 10987 10988 10989 10989 10989 10988 10989 10989 10989 10990 10990 10990 10989 10989 10988 10988 10987 10986 10986 10985 10984 10983 10981 10980 10979 10979 10979 10980 10980 10979
10918 10924 10929 10932 10935 10937 10937 10937 10938 10939 10941 10943 10946 10949 10951 10953 10954 10954 10954 10955 10956 10956 10957 10960 10961 10963 10964 10965 10965 10965 10964 10963 10963 10964 10965 10967 10969 10971 10972 10973 10974 10973 10971 10971 10974 10977 10978 10981 10982 10982 10982 10982 10982 10982 10982 10982 10983 10983 10984 10984 10984 10983 10984 10984 10985 10985 10985 10985 10985 10984 10984 10983 10983 10982 10982 10981 10981 10979 10978 10977 10976 10975 10976 10976 10976
10905 10911 10916 10920 10923 10926 10926 10926 10926 10929 10932 10934 10936 10939 10941 10943 10944 10945 10946 10946 10947 10948 10950 10952 10953 10955 10958 10958 10957 10957 10957 10956 10956 10958 10960 10961 10963 10965 10967 10968 10968 10967 10966 10965 10966 10968 10970 10973 10975 10975 10976 10976 10976 10977 10977 10977 10978 10978 10978 10978 10978 10977 10978 10979 10979 10979 10980 10980 10980 10980 10979 10979 10978 10977 10977 10976 10976 10975 10974 10973 10972 10971 10971 10971 10972
10893 10898 10903 10907 10910 10913 10914 10915 10916 10919 10922 10924 10926 10928 10930 10932 10934 10935 10936 10937 10938 10939 10940 10942 10944 10947 10950 10950 10949 10949 10950 10949 10949 10952 10953 10954 10956 10958 10959 10961 10961 10961 10960 10959 10959 10960 10961 10964 10966 10968 10969 10970 10970 10970 10970 10971 10972 10973 10973 10973 10972 10971 10972 10973 10973 10973 10973 10974 10974 10974 10974 10974 10973 10972 10971 10971 10970 10969 10969 10968 10967 10966 10965 10965 10966
10880 10884 10889 10893 10897 10900 10902 10904 10906 10909 10912 10914 10916 10917 10918 10920 10922 10924 10926 10928 10929 10930 10930 10932 10935 10938 10940 10941 10941 10941 10942 10942 10943 10944 10945 10946 10948 10950 10952 10953 10954 10954 10954 10953 10953 10954 10954 10955 10957 10959 10961 10962 10963 10963 10963 10964 10965 10966 10967 10967 10966 10964 10965 10966 10966 10966 10966 10966 10966 10967 10967 10967 10967 10967 10966 10965 10964 10963 10963 10962 10961 10960 10960 10959 10959
10867 10871 10875 10879 10884 10888 10890 10893 10896 10898 10901 10903 10905 10905 10906 10907 10909 10912 10916 10918 10918 10919 10920 10922 10925 10928 10930 10932 10933 10933 10933 10934 10935 10935 10935 10936 10939 10941 10944 10945 10945 10946 10947 10947 10947 10948 10947 10947 10948 10950 10952 10954 10954 10955 10955 10955 10957 10957 10958 10959 10959 10957 10958 10958 10958 10958 10958 10958 10958 10959 10959 10959 10960 10960 10959 10958 10957 10957 10956 10955 10954 10954 10953 10953 10953
10853 10857 10861 10866 10871 10874 10877 10881 10884 10886 10888 10891 10892 10892 10892 10895 10899 10902 10905 10906 10906 10909 10912 10913 10915 10918 10920 10922 10923 10924 10924 10925 10926 10926 10926 10927 10928 10930 10934 10936 10937 10937 10938 10939 10940 10940 10940 10940 10940 10941 10942 10944 10945 10946 10946 10946 10947 10948 10949 10950 10950 10949 10949 10950 10950 10950 10950 10949 10949 10949 10950 10950 10950 10951 10951 10951 10950 10950 10949 10948 10947 10946 10946 10945 10945
10839 10844 10849 10854 10857 10860 10865 10870 10873 10873 10874 10878 10880 10879 10880 10882 10887 10892 10894 10894 10895 10899 10902 10904 10905 10908 10910 10911 10912 10914 10915 10917 10917 10917 10919 10920 10919 10920 10922 10924 10927 10929 10929 10930 10931 10931 10931 10931 10931 10931 10933 10934 10935 10936 10936 10936 10937 10938 10939 10940 10940 10940 10939 10941 10941 10942 10941 10941 10940 10940 10940 10940 10941 10941 10941 10941 10941 10941 10941 10941 10940 10939 10938 10937 10937
10826 10831 10836 10839 10842 10848 10855 10859 10860 10859 10861 10864 10866 10867 10868 10870 10873 10878 10882 10882 10884 10887 10890 10892 10895 10897 10899 10900 10902 10904 10906 10907 10907 10909 10911 10912 10913 10913 10912 10913 10915 10917 10919 10920 10921 10921 10921 10921 10921 10922 10923 10924 10925 10927 10927 10927 10927 10928 10929 10930 10930 10930 10930 10930 10931 10932 10932 10932 10931 10931 10930 10931 10931 10931 10931 10931 10931 10931 10931 10931 10931 10930 10929 10929 10928
10812 10817 10822 10825 10829 10836 10841 10844 10844 10845 10848 10852 10854 10856 10857 10858 10860 10863 10867 10870 10872 10875 10877 10880 10883 10886 10888 10889 10891 10894 10896 10897 10898 10900 10901 10902 10904 10905 10905 10905 10904 10905 10907 10910 10911 10911 10912 10911 10911 10912 10913 10913 10914 10916 10917 10917 10917 10918 10919 10919 10920 10920 10920 10921 10921 10921 10921 10922 10922 10921 10921 10920 10920 10920 10920 10920 10921 10920 10920 10921 10921 10920 10920 10919 10918
10800 10804 10807 10811 10816 10822 10825 10827 10829 10831 10835 10839 10841 10843 10845 10847 10848 10851 10853 10856 10860 10863 10865 10868 10871 10874 10877 10878 10880 10882 10884 10886 10887 10889 10890 10891 10893 10895 10897 10898 10897 10897 10897 10898 10899 10900 10901 10901 10901 10902 10902 10903 10903 10904 10906 10906 10907 10908 10908 10908 10909 10909 10909 10910 10910 10909 10910 10911 10911 10910 10910 10910 10909 10909 10908 10909 10909 10909 10909 10910 10910 10909 10909 10908 10908
10788 10790 10791 10795 10802 10807 10810 10812 10815 10817 10821 10825 10828 10830 10832 10834 10836 10838 10841 10844 10847 10850 10853 10856 10859 10861 10864 10866 10868 10870 10872 10874 10876 10878 10879 10880 10882 10883 10886 10887 10888 10889 10889 10889 10889 10889 10890 10891 10891 10892 10892 10892 10892 10893 10893 10894 10895 10896 10896 10897 10898 10898 10898 10898 10898 10898 10899 10899 10899 10898 10898 10897 10897 10897 10896 10897 10897 10897 10897 10898 10898 10898 10897 10896 10896
10775 10776 10776 10782 10789 10793 10796 10799 10801 10804 10807 10811 10813 10815 10818 10821 10823 10826 10829 10832 10835 10837 10840 10843 10846 10849 10851 10853 10855 10857 10859 10862 10864 10867 10868 10869 10871 10873 10874 10875 10876 10878 10880 10880 10880 10880 10880 10880 10880 10881 10881 10881 10882 10882 10882 10882 10883 10883 10883 10884 10885 10886 10887 10887 10886 10886 10886 10886 10886 10886 10885 10884 10884 10883 10883 10884 10884 10884 10885 10885 10886 10886 10885 10884 10884
10762 10764 10765 10770 10775 10778 10781 10785 10787 10790 10793 10796 10798 10801 10805 10808 10810 10814 10818 10821 10823 10825 10828 10831 10834 10837 10839 10841 10843 10845 10847 10849 10851 10854 10856 10858 10859 10861 10863 10864 10864 10866 10868 10869 10870 10871 10872 10871 10871 10870 10870 10870 10870 10870 10871 10871 10871 10871 10870 10870 10871 10872 10873 10873 10872 10873 10874 10874 10874 10874 10872 10871 10870 10870 10869 10869 10869 10870 10871 10873 10873 10873 10872 10871 10871
10748 10750 10753 10756 10760 10764 10768 10771 10774 10776 10778 10780 10784 10788 10792 10795 10798 10802 10806 10809 10811 10813 10816 10819 10823 10825 10827 10829 10831 10832 10834 10836 10838 10840 10843 10845 10846 10848 10850 10851 10852 10854 10855 10856 10857 10860 10861 10861 10860 10860 10860 10859 10860 10859 10859 10859 10859 10859 10859 10858 10859 10860 10859 10858 10857 10858 10858 10858 10860 10861 10860 10859 10858 10857 10855 10854 10853 10854 10856 10858 10858 10858 10858 10857 10857
10732 10735 10738 10741 10745 10750 10754 10757 10760 10761 10762 10765 10770 10776 10779 10782 10785 10790 10793 10796 10798 10801 10804 10807 10810 10813 10815 10816 10818 10819 10821 10824 10825 10827 10830 10831 10833 10835 10837 10838 10839 10842 10842 10842 10843 10846 10848 10848 10848 10848 10848 10848 10848 10848 10848 10847 10847 10846 10847 10847 10847 10848 10847 10846 10846 10845 10843 10842 10843 10844 10844 10845 10845 10844 10843 10841 10841 10841 10842 10841 10841 10841 10841 10842 10843
10716 10719 10723 10727 10732 10737 10741 10744 10745 10746 10749 10753 10758 10763 10767 10769 10773 10777 10780 10783 10786 10789 10791 10793 10797 10801 10802 10802 10804 10807 10809 10811 10812 10814 10816 10818 10820 10821 10822 10824 10826 10828 10828 10828 10829 10832 10833 10834 10834 10834 10834 10835 10835 10835 10835 10834 10834 10834 10834 10834 10834 10834 10834 10834 10834 10833 10831 10829 10828 10827 10828 10830 10830 10829 10827 10826 10828 10829 10828 10827 10827 10826 10825 10825 10825
10701 10704 10708 10714 10719 10724 10728 10730 10730 10732 10736 10741 10745 10749 10754 10757 10760 10763 10767 10769 10773 10776 10778 10781 10785 10788 10787 10787 10791 10795 10796 10797 10799 10801 10803 10805 10806 10807 10809 10810 10812 10813 10814 10815 10815 10816 10817 10819 10819 10819 10819 10820 10821 10820 10820 10820 10820 10820 10820 10820 10820 10820 10819 10819 10819 10818 10816 10814 10813 10814 10816 10817 10817 10814 10811 10810 10810 10810 10811 10812 10813 10812 10811 10809 10809
10688 10690 10693 10698 10704 10709 10713 10715 10716 10718 10722 10728 10733 10736 10740 10743 10747 10750 10753 10756 10759 10762 10766 10769 10772 10772 10772 10774 10779 10782 10782 10783 10786 10788 10789 10790 10792 10794 10795 10797 10798 10799 10800 10800 10799 10800 10802 10803 10804 10804 10804 10805 10804 10804 10805 10805 10805 10805 10804 10804 10804 10803 10803 10803 10802 10801 10798 10797 10797 10799 10802 10803 10802 10800 10797 10795 10793 10793 10794 10795 10795 10795 10795 10794 10793
10674 10676 10679 10683 10689 10694 10698 10701 10703 10704 10708 10713 10717 10721 10724 10728 10733 10736 10740 10744 10747 10750 10753 10757 10757 10758 10760 10763 10765 10766 10768 10769 10772 10774 10774 10776 10777 10779 10780 10782 10784 10784 10784 10784 10784 10785 10786 10788 10788 10788 10788 10788 10788 10789 10789 10789 10788 10787 10787 10787 10787 10787 10786 10785 10784 10781 10780 10780 10782 10783 10783 10783 10783 10782 10780 10777 10776 10775 10776 10777 10777 10777 10777 10777 10776
10660 10662 10665 10668 10673 10678 10682 10687 10690 10691 10694 10697 10701 10704 10709 10713 10717 10722 10726 10731 10734 10737 10741 10743 10744 10744 10747 10749 10750 10752 10754 10756 10757 10759 10760 10761 10762 10764 10766 10767 10768 10768 10767 10768 10769 10770 10771 10771 10771 10771 10771 10771 10771 10772 10772 10771 10771 10770 10769 10770 10770 10770 10768 10766 10764 10762 10763 10765 10765 10764 10763 10762 10762 10762 10761 10759 10757 10756 10755 10756 10757 10757 10757 10756 10756
10646 10650 10652 10654 10658 10662 10666 10671 10675 10678 10680 10682 10684 10688 10692 10696 10701 10707 10712 10716 10720 10723 10727 10729 10730 10731 10733 10735 10736 10738 10741 10742 10743 10744 10745 10746 10747 10749 10751 10752 10751 10750 10750 10752 10754 10754 10754 10753 10754 10754 10753 10753 10754 10754 10753 10753 10752 10752 10752 10752 10753 10752 10749 10746 10745 10745 10747 10747 10746 10744 10742 10741 10741 10741 10741 10740 10739 10737 10736 10735 10735 10735 10736 10735 10734
10633 10637 10639 10641 10645 10648 10651 10655 10659 10663 10665 10668 10669 10672 10676 10680 10686 10692 10696 10700 10704 10707 10711 10713 10714 10715 10718 10720 10722 10723 10725 10727 10728 10730 10731 10731 10733 10734 10735 10736 10735 10734 10734 10736 10738 10738 10736 10736 10736 10736 10736 10735 10735 10735 10735 10735 10734 10733 10734 10734 10734 10732 10729 10727 10728 10729 10729 10727 10725 10723 10722 10721 10721 10720 10720 10720 10719 10718 10716 10715 10714 10714 10714 10713 10712
10621 10624 10626 10628 10631 10634 10637 10640 10643 10646 10650 10652 10655 10658 10662 10666 10670 10675 10679 10683 10686 10689 10693 10697 10698 10699 10702 10705 10706 10707 10708 10711 10713 10714 10715 10716 10717 10719 10720 10720 10719 10717 10718 10721 10722 10721 10720 10719 10719 10719 10718 10718 10718 10717 10717 10716 10715 10715 10715 10716 10714 10712 10710 10709 10709 10709 10708 10706 10704 10702 10702 10701 10700 10699 10699 10698 10697 10696 10695 10694 10692 10692 10691 10690 10690
10610 10612 10613 10615 10618 10621 10624 10627 10629 10631 10633 10637 10640 10644 10648 10651 10655 10659 10663 10666 10669 10673 10677 10680 10682 10683 10686 10689 10690 10691 10693 10695 10697 10698 10699 10701 10702 10703 10704 10703 10702 10701 10703 10704 10705 10705 10704 10703 10703 10702 10701 10700 10700 10700 10699 10699 10698 10697 10697 10696 10694 10692 10691 10690 10689 10689 10687 10686 10684 10683 10681 10680 10679 10677 10677 10676 10675 10674 10673 10672 10670 10669 10668 10667 10666
10596 10600 10602 10603 10605 10607 10611 10614 10616 10617 10619 10622 10626 10630 10633 10637 10641 10645 10648 10650 10653 10657 10660 10663 10665 10668 10670 10672 10674 10676 10678 10679 10681 10682 10683 10685 10686 10687 10687 10687 10686 10686 10686 10687 10688 10687 10687 10686 10686 10685 10684 10683 10683 10682 10681 10681 10680 10680 10679 10677 10675 10673 10673 10671 10670 10669 10667 10665 10664 10662 10661 10659 10658 10656 10654 10653 10652 10651 10651 10649 10648 10646 10644 10642 10641
10580 10585 10588 10591 10592 10594 10597 10601 10603 10605 10607 10609 10612 10616 10619 10622 10626 10630 10633 10636 10639 10642 10644 10647 10650 10652 10654 10656 10658 10660 10662 10663 10665 10666 10667 10668 10669 10670 10671 10671 10671 10670 10670 10671 10671 10670 10669 10669 10669 10668 10666 10666 10665 10664 10664 10663 10662 10661 10660 10658 10656 10655 10654 10652 10650 10649 10647 10644 10642 10641 10639 10637 10635 10633 10631 10629 10628 10627 10627 10626 10624 10622 10619 10617 10615
10564 10568 10572 10577 10580 10582 10585 10587 10590 10593 10596 10597 10599 10601 10605 10608 10612 10615 10618 10621 10624 10627 10630 10633 10634 10636 10638 10640 10643 10644 10646 10647 10649 10651 10652 10653 10653 10654 10654 10655 10654 10654 10654 10654 10654 10653 10652 10651 10651 10650 10649 10648 10647 10646 10645 10644 10643 10641 10639 10638 10636 10634 10633 10631 10630 10628 10625 10623 10621 10619 10617 10614 10612 10609 10607 10606 10604 10603 10602 10601 10599 10597 10594 10592 10590
10546 10550 10555 10562 10568 10572 10574 10576 10578 10582 10585 10587 10588 10589 10591 10594 10597 10601 10604 10606 10609 10612 10616 10618 10620 10622 10624 10626 10628 10629 10630 10631 10633 10634 10636 10637 10638 10638 10638 10638 10638 10637 10637 10637 10636 10635 10635 10634 10633 10632 10631 10630 10629 10628 10627 10625 10623 10621 10619 10618 10615 10613 10612 10610 10608 10606 10604 10602 10600 10597 10594 10591 10588 10586 10584 10583 10581 10580 10578 10576 10574 10572 10569 10567 10565
10530 10533 10539 10548 10556 10561 10564 10565 10567 10570 10573 10576 10578 10579 10579 10580 10583 10586 10589 10591 10595 10598 10601 10603 10605 10608 10610 10611 10612 10613 10615 10616 10618 10619 10621 10622 10622 10622 10622 10622 10622 10621 10620 10619 10619 10618 10617 10616 10615 10614 10613 10612 10611 10609 10608 10607 10605 10603 10601 10598 10595 10594 10592 10589 10587 10584 10582 10579 10577 10574 10571 10568 10566 10563 10561 10560 10558 10556 10554 10552 10549 10547 10544 10542 10540